Weather History for Salida, CO

Change the Weather History Date:

Sunday, September 2, 2012

  Actual Average (KGUC) Record (KGUC)
Temperature  
Mean Temperature 69 °F -  
Max Temperature 83 °F 71 °F 80 °F (1997)
Min Temperature 55 °F 38 °F 33 °F (2004)
Cooling Degree Days 4    
Growing Degree Days 19 (Base 50)    
Moisture  
Dew Point 44 °F    
Average Humidity 47    
Maximum Humidity 70    
Minimum Humidity 16    
Precipitation  
Precipitation 0.00 in - - ()
Sea Level Pressure  
Sea Level Pressure 30.41 in    
Wind  
Wind Speed 6 mph (West)    
Max Wind Speed 24 mph    
Max Gust Speed 31 mph    
Visibility 10 miles    
Events      
Averages and records for this station are not official NWS values.
T = Trace of Precipitation, MM = Missing Value Source: NWS Daily Summary

Daily Weather History Graph

Daily Weather History Graph

Search for Another Location

Airport:

Trip Planner

Search our weather history database for the weather conditions in past years. The results will help you decide how hot, cold, wet, or windy it might be!

Date:

Astronomy

Sep. 02, 2012 Rise Set
Actual Time 6:34 AM MDT 7:31 PM MDT
Civil Twilight 6:07 AM MDT 7:58 PM MDT
Nautical Twilight 5:35 AM MDT 8:30 PM MDT
Astronomical Twilight 5:02 AM MDT 9:04 PM MDT
Moon 8:23 PM MDT (9/2) 8:43 AM MDT (9/2)
Length of Visible Light 13h 51m
Length of Day
12h 56m
Waning Gibbous, 95% of the Moon is Illuminated
Sep 2
Waning Gibbous
Sep 8
Last Quarter
Sep 15
New
Sep 22
First Quarter
Sep 29
Full

Hourly Weather History & Observations

Time (MDT) Temp. Dew Point Humidity Pressure Visibility Wind Dir Wind Speed Gust Speed Precip Events Conditions
12:15 AM 64.0 °F 43.7 °F 48% 30.38 in 10.0 mi NW 5.8 mph - N/A   Clear
12:35 AM 63.7 °F 42.8 °F 47% 30.39 in 10.0 mi WNW 5.8 mph - N/A   Clear
12:55 AM 65.8 °F 42.1 °F 42% 30.39 in 10.0 mi WSW 10.4 mph - N/A   Clear
1:15 AM 67.5 °F 42.1 °F 40% 30.38 in 10.0 mi West 3.5 mph - N/A   Clear
1:55 AM 66.2 °F 43.5 °F 44% 30.39 in 10.0 mi NNW 9.2 mph 16.1 mph N/A   Scattered Clouds
2:15 AM 64.4 °F 43.7 °F 47% 30.38 in 10.0 mi WNW 5.8 mph - N/A   Scattered Clouds
2:35 AM 63.9 °F 43.9 °F 48% 30.38 in 10.0 mi WNW 8.1 mph - N/A   Scattered Clouds
2:55 AM 64.0 °F 43.5 °F 47% 30.39 in 10.0 mi Calm Calm - N/A   Clear
3:15 AM 63.5 °F 43.5 °F 48% 30.39 in 10.0 mi West 4.6 mph - N/A   Clear
3:35 AM 62.6 °F 43.0 °F 49% 30.38 in 10.0 mi WSW 9.2 mph - N/A   Clear
3:55 AM 60.8 °F 42.6 °F 51% 30.38 in 10.0 mi West 8.1 mph - N/A   Clear
4:15 AM 59.5 °F 42.4 °F 53% 30.38 in 10.0 mi NW 5.8 mph - N/A   Clear
4:35 AM 59.4 °F 42.8 °F 54% 30.38 in 10.0 mi NNW 3.5 mph - N/A   Clear
4:55 AM 58.3 °F 42.8 °F 56% 30.39 in 10.0 mi WSW 3.5 mph - N/A   Clear
5:15 AM 58.1 °F 42.8 °F 57% 30.39 in 10.0 mi WSW 3.5 mph - N/A   Clear
5:35 AM 57.9 °F 43.0 °F 58% 30.40 in 10.0 mi NNW 4.6 mph - N/A   Clear
5:55 AM 55.8 °F 43.0 °F 62% 30.41 in 10.0 mi Calm Calm - N/A   Clear
6:15 AM 56.5 °F 43.0 °F 61% 30.41 in 10.0 mi NNW 3.5 mph - N/A   Clear
6:35 AM 57.9 °F 43.3 °F 58% 30.42 in 10.0 mi Calm Calm - N/A   Clear
6:55 AM 56.1 °F 43.3 °F 62% 30.43 in 10.0 mi Calm Calm - N/A   Clear
7:15 AM 57.9 °F 43.7 °F 59% 30.44 in 10.0 mi SW 4.6 mph - N/A   Clear
7:35 AM 58.3 °F 43.7 °F 58% 30.44 in 10.0 mi Calm Calm - N/A   Clear
7:55 AM 60.3 °F 44.6 °F 56% 30.44 in 10.0 mi Calm Calm - N/A   Clear
8:15 AM 60.6 °F 44.6 °F 56% 30.45 in 10.0 mi West 3.5 mph - N/A   Clear
8:35 AM 61.7 °F 44.8 °F 54% 30.44 in 10.0 mi NNW 6.9 mph - N/A   Clear
8:55 AM 62.4 °F 45.9 °F 55% 30.45 in 10.0 mi North 3.5 mph - N/A   Clear
9:15 AM 63.7 °F 45.7 °F 52% 30.45 in 10.0 mi Calm Calm - N/A   Clear
9:35 AM 66.2 °F 43.9 °F 44% 30.45 in 10.0 mi North 4.6 mph - N/A   Clear
9:55 AM 68.9 °F 43.5 °F 40% 30.45 in 10.0 mi Calm Calm - N/A   Clear
10:15 AM 71.2 °F 42.3 °F 35% 30.45 in 10.0 mi NNE 4.6 mph - N/A   Clear
10:35 AM 72.5 °F 41.9 °F 33% 30.44 in 10.0 mi Calm Calm - N/A   Clear
10:55 AM 72.9 °F 40.6 °F 31% 30.44 in 10.0 mi Calm Calm - N/A   Clear
11:15 AM 75.2 °F 41.2 °F 29% 30.43 in 10.0 mi North 3.5 mph - N/A   Clear
11:35 AM 76.8 °F 40.8 °F 27% 30.42 in 10.0 mi Calm Calm - N/A   Clear
11:55 AM 77.4 °F 39.6 °F 26% 30.41 in 10.0 mi Calm Calm - N/A   Clear
12:15 PM 81.1 °F 37.8 °F 21% 30.40 in 10.0 mi SW 10.4 mph 16.1 mph N/A   Clear
12:35 PM 83.7 °F 32.7 °F 16% 30.39 in 10.0 mi WSW 10.4 mph 21.9 mph N/A   Clear
12:55 PM 82.4 °F 31.5 °F 16% 30.39 in 10.0 mi West 16.1 mph 21.9 mph N/A   Clear
1:15 PM 81.7 °F 31.6 °F 16% 30.38 in 10.0 mi West 18.4 mph 23.0 mph N/A   Clear
1:35 PM 81.7 °F 32.7 °F 17% 30.38 in 10.0 mi WSW 11.5 mph 23.0 mph N/A   Clear
1:55 PM 81.9 °F 30.7 °F 16% 30.37 in 10.0 mi WSW 15.0 mph 27.6 mph N/A   Clear
2:15 PM 82.2 °F 32.0 °F 16% 30.36 in 10.0 mi WSW 9.2 mph 17.3 mph N/A   Clear
2:35 PM 82.2 °F 32.7 °F 17% 30.35 in 10.0 mi WSW 16.1 mph - N/A   Scattered Clouds
2:55 PM 79.9 °F 34.3 °F 19% 30.37 in 10.0 mi WSW 24.2 mph 29.9 mph N/A   Mostly Cloudy
3:15 PM 77.0 °F 36.5 °F 23% 30.38 in 10.0 mi SW 18.4 mph 26.5 mph N/A   Overcast
3:35 PM 72.9 °F 40.6 °F 31% 30.40 in 10.0 mi SSW 17.3 mph 25.3 mph N/A   Overcast
3:55 PM 70.9 °F 44.8 °F 39% 30.41 in 10.0 mi South 13.8 mph 19.6 mph N/A   Overcast
4:15 PM 71.2 °F 44.4 °F 38% 30.42 in 10.0 mi West 24.2 mph 31.1 mph N/A   Mostly Cloudy
4:35 PM 69.8 °F 45.1 °F 41% 30.42 in 10.0 mi WSW 15.0 mph 21.9 mph N/A   Mostly Cloudy
4:55 PM 69.3 °F 48.9 °F 48% 30.43 in 10.0 mi West 5.8 mph 17.3 mph N/A   Overcast
5:15 PM 68.9 °F 51.1 °F 53% 30.42 in 10.0 mi NE 11.5 mph - N/A   Overcast
5:55 PM 65.1 °F 52.3 °F 63% 30.42 in 10.0 mi South 6.9 mph - N/A   Overcast
6:15 PM 65.7 °F 50.7 °F 58% 30.42 in 10.0 mi West 3.5 mph - N/A   Overcast
6:35 PM 66.0 °F 50.5 °F 57% 30.41 in 10.0 mi West 3.5 mph - N/A   Overcast
6:55 PM 65.5 °F 50.2 °F 58% 30.42 in 10.0 mi Calm Calm - N/A   Overcast
7:15 PM 65.7 °F 49.6 °F 56% 30.41 in 10.0 mi Calm Calm - N/A   Overcast
7:35 PM 64.6 °F 50.7 °F 61% 30.42 in 10.0 mi SSW 5.8 mph - N/A   Overcast
7:55 PM 63.7 °F 52.9 °F 68% 30.42 in 10.0 mi SE 5.8 mph - N/A   Overcast
8:15 PM 62.8 °F 52.9 °F 70% 30.42 in 10.0 mi SE 3.5 mph - N/A   Mostly Cloudy
8:35 PM 63.0 °F 51.3 °F 66% 30.41 in 10.0 mi ESE 4.6 mph - N/A   Scattered Clouds
8:55 PM 62.6 °F 50.7 °F 65% 30.41 in 10.0 mi SE 6.9 mph - N/A   Mostly Cloudy
9:15 PM 61.9 °F 50.9 °F 67% 30.42 in 10.0 mi Calm Calm - N/A   Mostly Cloudy
9:35 PM 62.1 °F 50.5 °F 66% 30.42 in 10.0 mi North 3.5 mph - N/A   Overcast
9:55 PM 60.6 °F 50.0 °F 68% 30.42 in 10.0 mi Calm Calm - N/A   Overcast
10:15 PM 61.2 °F 49.1 °F 65% 30.42 in 10.0 mi NW 3.5 mph - N/A   Mostly Cloudy
10:35 PM 59.0 °F 48.0 °F 67% 30.43 in 10.0 mi SSW 3.5 mph - N/A   Mostly Cloudy
10:55 PM 58.8 °F 46.8 °F 64% 30.43 in 10.0 mi WSW 8.1 mph - N/A   Mostly Cloudy
11:15 PM 59.9 °F 46.4 °F 61% 30.43 in 10.0 mi West 4.6 mph - N/A   Overcast
11:35 PM 59.9 °F 47.3 °F 63% 30.43 in 10.0 mi Calm Calm - N/A   Overcast
11:55 PM 59.4 °F 46.6 °F 63% 30.43 in 10.0 mi WSW 4.6 mph - N/A   Mostly Cloudy